Hourly Weather Roundup
Issued by NWS Central Illinois

Home | Current Version | Previous Version | Text Only | Print | Product List | Glossary On
Versions: 1 2 3 4 5 6 7 8 9 10 11 12 13 14 15 16 17 18 19 20 21 22 23 24 25 26 27 28 29 30 31 32 33 34 35 36 37 38 39 40 41 42 43 44 45 46 47 48 49 50
430
NZUS43 KILX 111010
HWRILX

AREA WEATHER ROUNDUP
NATIONAL WEATHER SERVICE, LINCOLN IL
400 AM CST THU FEB 11 2016


CITY           SKY/WX    TMP DP  RH WIND       PRES   REMARKS
BLOOMINGTON    CLEAR     11   5  76 N6        30.22R WCI   2
CHAMPAIGN      CLOUDY    14   7  73 N6        30.20R WCI   5
DANVILLE       CLOUDY    12   7  79 NW5       30.18R WCI   4
DECATUR        CLOUDY    15   6  67 N6        30.21R WCI   6
EFFINGHAM      CLOUDY    21  15  79 N6        30.23R WCI  13
FLORA          CLOUDY    23  18  81 N6        30.22R WCI  16
GALESBURG      CLOUDY     6   2  84 CALM      30.25R
JACKSONVILLE   CLOUDY    22  14  71 N8        30.23R WCI  12
LACON          CLEAR      9   3  75 CALM      30.25R
LAWRENCEVILLE  CLOUDY    21  14  74 N8        30.22R WCI  11
LITCHFIELD     CLOUDY    19  15  84 NE9       30.20S WCI   9
$$


CITY           SKY/WX    TMP DP  RH WIND       PRES   REMARKS
LINCOLN        CLEAR     14   8  76 N5        30.23R WCI   6
MACOMB         CLOUDY    12   6  76 N8        30.27R WCI   0
MATTOON        CLOUDY    16   7  67 N7        30.19S WCI   6
MT CARMEL AP   CLOUDY    21  16  79 NE5       30.21R WCI  15
OLNEY-NOBLE AP CLOUDY    21  18  86 NE7       30.22R WCI  13
PARIS          CLOUDY    14   9  81 CALM      30.21S
PEORIA         CLEAR     11   3  70 N3        30.25R
PONTIAC        PTCLDY    13   6  74 N3        30.23R
RANTOUL        MOCLDY    15   7  72 N6        30.21R WCI   6
ROBINSON       CLOUDY    19  12  74 N8        30.23R WCI   9
SPRINGFIELD    CLOUDY    19   8  62 N8        30.23R WCI   9
TAYLORVILLE    CLOUDY    19   9  63 N9        30.22R WCI   9
$$

...REGIONAL REPORTS...


CITY           SKY/WX    TMP DP  RH WIND       PRES   REMARKS
CHICAGO O`HARE CLEAR      9  -2  61 N10       30.20R WCI  -5
KANKAKEE       PTCLDY    12   2  63 NW6       30.22R WCI   3
MOLINE         CLOUDY    11   2  67 CALM      30.26R
MOUNT STERLING CLOUDY    17   9  70 N10       30.22R WCI   5
MOUNT VERNON   CLOUDY    21  16  79 NE7       30.19S WCI  13
PITTSFIELD     CLOUDY    20  16  84 N5        30.23R WCI  13
QUINCY         CLOUDY    19  13  77 NE12      30.23R WCI   7
ROCKFORD       CLEAR      8   0  69 N8        30.25R WCI  -4
$$


CITY           SKY/WX    TMP DP  RH WIND       PRES   REMARKS
BURLINGTON     CLOUDY    10   4  76 N8        30.26R WCI  -2
CEDAR RAPIDS   CLOUDY     5   0  79 N6        30.25S WCI  -6
DES MOINES     CLOUDY    10  -1  61 NE9       30.27R WCI  -3
KIRKSVILLE     CLOUDY    19  13  77 NE13      30.22R WCI   6
OTTUMWA        CLOUDY    10   2  69 NE7       30.25S WCI  -1
ST LOUIS       CLOUDY    24  18  77 NE8       30.20R WCI  15
$$


CITY           SKY/WX    TMP DP  RH WIND       PRES   REMARKS
TERRE HAUTE    PTCLDY    13   6  74 NW5       30.20S WCI   5
EVANSVILLE     CLOUDY    24  17  74 NE8       30.21R WCI  15
INDIANAPOLIS   NOT AVBL
LAFAYETTE      CLOUDY    11   5  77 NW7       30.19R WCI   0
MADISON        CLEAR      3  -5  69 N5        30.23S WCI  -6
MILWAUKEE      CLEAR      6  -4  63 NW9       30.21R WCI  -8
$$






USA.gov is the U.S. government's official web portal to all federal, state and local government web resources and services.